Cloud_Cover
7 100 100 100 94 53 100 100 87 99 64 100 69 80 69 10 1 2 0 0 0 0 0 4 3 5 5 12 33 98 100 100 100 100 100 100 100 100 100 100 100 98 10 20 100 100 100 80 26
5 44 100 100 60 100 100 100 5 4 50 29 6 8 4 5 0 7 37 2 1 3 0 0 1 5 5 11 5 5 2 78 100 100 100 100 100 100 95 64 100 100 94 99 100 99 100 98 22
10 96 100 100 100 100 100 100 5 0 67 23 1 0 0 0 0 1 18 0 2 11 3 0 0 0 3 5 6 5 5 4 3 7 5 13 52 41 78 92 62 50 92 100 100 100 100 41 100
61 100 100 100 100 82 100 100 28 2 1 12 0 4 9 5 0 0 36 4 3 0 0 0 0 0 0 5 5 61 90 5 5 5 60 23 11 94 5 86 6 6 100 100 97 100 100 91 62
17 100 100 100 100 100 32 100 100 55 12 7 0 4 13 8 0 0 13 0 0 0 3 0 13 0 35 5 5 8 52 5 5 5 75 95 5 6 30 17 5 87 67 100 100 100 100 100 100
87 100 100 100 100 74 65 81 100 97 45 47 0 0 3 0 0 0 1 3 33 0 0 1 4 4 80 38 5 6 5 19 5 8 99 99 7 54 34 61 34 18 17 100 100 99 100 100 100
100 100 100 100 100 100 84 100 100 94 83 0 0 0 28 0 0 32 2 0 15 3 0 0 1 5 3 99 16 54 29 27 98 50 86 35 5 92 5 5 5 14 5 11 100 92 100 100 100
100 100 99 91 100 100 100 99 100 34 95 0 80 0 84 6 13 68 0 0 10 6 1 0 0 5 3 19 4 2 5 10 92 85 100 100 100 91 5 5 5 1 5 5 6 24 28 60 67
100 100 100 100 99 100 100 91 100 100 88 2 30 0 19 0 5 0 0 8 0 50 21 0 0 0 5 18 3 5 87 99 98 100 100 100 100 100 16 5 5 0 3 5 5 18 5 5 5
100 100 100 98 100 100 100 99 100 100 100 100 13 0 40 43 0 41 37 1 0 76 1 5 0 1 2 24 5 77 84 67 96 100 100 100 100 100 5 5 4 1 5 5 15 5 22 6 51
99 100 100 100 100 100 100 99 100 71 100 69 0 9 85 95 71 81 0 3 0 0 0 77 44 0 6 53 4 6 100 100 100 100 100 100 100 87 0 0 1 5 5 76 85 57 91 36 74
65 100 100 74 68 100 100 100 100 99 100 49 19 15 100 4 2 0 83 58 0 0 7 18 7 14 12 49 20 64 96 100 100 100 100 100 86 0 8 6 32 81 75 36 98 70 100 6 11
15 100 100 97 100 96 100 100 96 100 100 100 0 19 2 0 79 4 8 3 0 0 0 27 28 6 100 82 2 34 100 100 100 97 98 72 11 2 100 100 100 98 100 48 100 8 5 5 1
36 100 100 100 100 100 100 100 100 53 100 100 43 96 5 4 100 84 7 7 0 0 0 25 68 13 17 27 0 6 42 39 89 49 3 0 0 7 14 100 100 90 68 94 17 33 36 3 0
4 60 100 100 91 100 100 100 100 99 100 41 0 26 1 88 100 33 0 0 0 0 20 0 55 48 11 41 9 9 28 12 26 0 0 57 1 84 22 49 14 4 43 89 34 74 4 0 0
22 60 100 100 96 100 100 100 100 100 98 65 12 76 77 100 100 56 0 0 40 0 3 13 5 0 16 3 0 0 7 55 37 6 0 0 0 5 2 30 12 25 63 0 96 16 0 0 0
90 77 94 100 100 100 100 90 100 77 100 99 5 22 100 93 93 8 0 1 0 14 6 5 5 2 2 0 49 1 80 7 84 29 0 0 9 5 2 3 2 0 0 0 4 57 6 6 28
100 44 100 100 100 100 100 100 100 100 100 65 5 62 91 73 73 4 26 0 0 0 45 67 0 5 45 51 18 12 2 13 78 93 11 2 21 94 88 76 86 5 2 0 2 58 42 8 77
100 100 100 100 100 100 100 100 100 100 100 92 100 99 20 5 58 26 4 0 0 5 0 5 4 4 0 0 0 76 0 1 40 12 57 5 13 14 5 100 20 2 5 0 0 23 79 5 46
100 99 21 100 100 100 100 100 100 100 100 100 100 72 5 8 93 3 5 0 33 0 82 62 57 5 4 20 1 0 4 0 36 12 0 16 6 83 56 100 85 0 2 7 4 4 38 9 100
100 50 84 100 100 100 100 100 100 100 100 96 100 100 15 8 17 6 5 24 0 0 7 3 45 5 5 5 4 1 3 2 0 21 5 6 27 98 100 20 4 3 6 100 100 71 98 100 100
100 79 100 97 100 100 100 100 100 100 100 100 100 100 58 39 5 5 3 19 0 0 0 5 5 5 74 4 79 19 34 4 5 41 43 5 5 8 5 8 4 5 22 100 100 95 88 54 90
78 100 100 100 100 100 100 100 100 100 100 100 100 100 83 14 31 92 0 2 4 0 0 2 25 35 6 93 100 24 20 96 5 6 12 5 5 9 10 1 5 5 6 46 98 97 100 100 99
34 99 100 100 100 100 100 98 100 100 100 100 100 90 100 100 64 20 74 34 5 6 0 0 12 5 26 100 100 100 99 95 52 86 53 72 52 8 4 5 5 5 7 6 5 25 100 100 100
88 86 98 100 100 100 100 100 100 100 100 95 99 100 100 98 98 93 100 4 43 52 21 0 0 5 3 2 20 88 100 73 100 98 100 100 100 96 34 5 7 64 82 1 0 5 5 22 26
7 90 96 100 100 100 100 100 100 100 100 100 100 100 100 100 100 73 100 51 95 91 84 0 0 1 42 5 5 5 6 47 100 100 100 100 100 100 70 29 5 5 9 5 2 0 1 8 12
40 50 65 63 100 100 100 100 100 100 99 100 100 100 98 71 100 100 20 74 40 91 100 9 0 5 0 0 0 3 0 9 32 98 100 100 100 95 100 90 13 74 31 5 45 5 5 0 0
8 72 94 65 100 100 100 100 100 100 100 100 98 98 95 99 85 94 32 40 5 69 71 100 26 0 5 0 0 0 0 0 1 22 82 62 94 100 98 100 100 52 32 99 19 5 4 0 5
5 0 5 60 100 100 100 100 100 100 100 100 98 90 100 100 94 99 44 98 22 89 100 76 86 3 3 70 1 0 0 0 0 0 4 5 34 64 84 100 96 84 52 14 83 6 23 78 6
5 0 0 0 97 100 100 100 100 100 100 100 100 99 100 100 93 90 100 67 5 100 99 99 100 100 10 76 100 2 0 0 0 0 0 0 4 5 6 8 5 9 58 33 5 19 98 100 100